Carbondale, IL

4:35 AM CST on December 06, 2019 (GMT -0600)
Southern Illinois

Weather History for KMDH - October, 2019

Change the Weather History Date:

Thursday, October 17, 2019

  Actual Average Record
Temperature  
Mean Temperature 48 °F -  
Max Temperature 63 °F 67 °F 90 °F (1938)
Min Temperature 34 °F 43 °F 25 °F (1991)
Degree Days  
Heating Degree Days 17    
Moisture  
Dew Point 37 °F    
Average Humidity 80    
Maximum Humidity 100    
Minimum Humidity 38    
Precipitation  
Precipitation 0.00 in - - ()
Sea Level Pressure  
Sea Level Pressure 30.08 in    
Wind  
Wind Speed 1 mph (WNW)    
Max Wind Speed 7 mph    
Max Gust Speed -    
Visibility 7 miles    
Events Fog    
Averages and records for this station are not official NWS values.
T = Trace of Precipitation, MM = Missing Value Source: NWS Daily Summary

Daily Weather History Graph

Daily Weather History Graph

Search for Another Location

Airport or City:

Astronomy

Oct. 17, 2019 Rise Set
Actual Time 7:07 AM CDT 6:17 PM CDT
Civil Twilight 6:40 AM CDT 6:43 PM CDT
Nautical Twilight 6:10 AM CDT 7:13 PM CDT
Astronomical Twilight 5:39 AM CDT 7:44 PM CDT
Moon 8:52 PM CDT (10/17) 10:35 AM CDT (10/17)
Length of Visible Light 12h 02m
Length of Day
11h 09m
Waning Gibbous, 86% of the Moon is Illuminated
Oct 17
Waning Gibbous
Oct 21
Last Quarter
Oct 27
New
Nov 4
First Quarter
Nov 12
Full

Hourly Weather History & Observations

Time (CDT) Temp. Windchill Dew Point Humidity Pressure Visibility Wind Dir Wind Speed Gust Speed Precip Events Conditions
12:52 AM 37.0 °F - 34.0 °F 89% 30.10 in 10.0 mi Calm Calm - N/A   Scattered Clouds
1:52 AM 36.0 °F - 34.0 °F 93% 30.11 in 9.0 mi Calm Calm - N/A   Clear
2:52 AM 37.0 °F - 35.1 °F 93% 30.10 in 7.0 mi Calm Calm - N/A   Clear
2:58 AM 37.0 °F - 35.1 °F 93% 30.10 in 1.8 mi Calm Calm - N/A   Clear
3:19 AM 35.1 °F - 35.1 °F 100% 30.10 in 0.8 mi Calm Calm - N/A   Mist
3:43 AM 37.0 °F - 36.0 °F 96% 30.10 in 1.2 mi Calm Calm - N/A   Scattered Clouds
3:46 AM 35.6 °F - 35.6 °F 100% 30.10 in 4.0 mi Calm Calm - N/A   Scattered Clouds
3:52 AM 36.0 °F - 35.1 °F 97% 30.10 in 7.0 mi Calm Calm - N/A   Partly Cloudy
4:04 AM 37.0 °F 34.5 °F 35.1 °F 93% 30.09 in 1.5 mi North 3.5 mph - N/A   Partly Cloudy
4:06 AM 37.0 °F - 35.1 °F 93% 30.09 in 0.8 mi Calm Calm - N/A   Mist
4:52 AM 34.0 °F - 34.0 °F 100% 30.09 in 0.5 mi Calm Calm - N/A Fog Fog
5:52 AM 35.1 °F - 34.0 °F 96% 30.11 in 1.5 mi Calm Calm - N/A   Mist
5:56 AM 35.1 °F - 34.0 °F 96% 30.11 in 3.0 mi Calm Calm - N/A   Clear
6:03 AM 35.1 °F - 34.0 °F 96% 30.11 in 8.0 mi Calm Calm - N/A   Partly Cloudy
6:52 AM 34.0 °F - 32.0 °F 92% 30.12 in 9.0 mi Calm Calm - N/A   Clear
7:52 AM 37.0 °F 34.5 °F 36.0 °F 96% 30.12 in 4.0 mi SW 3.5 mph - N/A   Clear
8:52 AM 45.0 °F 43.5 °F 42.1 °F 90% 30.13 in 6.0 mi WSW 3.5 mph - N/A   Clear
9:52 AM 51.1 °F - 42.1 °F 71% 30.13 in 10.0 mi NW 3.5 mph - N/A   Clear
10:52 AM 55.0 °F - 37.0 °F 51% 30.13 in 10.0 mi West 5.8 mph - N/A   Clear
11:52 AM 57.0 °F - 37.9 °F 49% 30.12 in 10.0 mi NW 5.8 mph - N/A   Clear
12:52 PM 59.0 °F - 37.9 °F 46% 30.09 in 10.0 mi WSW 6.9 mph - N/A   Clear
1:52 PM 61.0 °F - 37.9 °F 42% 30.06 in 10.0 mi Variable 4.6 mph - N/A   Clear
2:52 PM 62.1 °F - 37.0 °F 39% 30.04 in 10.0 mi Variable 3.5 mph - N/A   Clear
3:52 PM 62.1 °F - 37.9 °F 41% 30.03 in 10.0 mi Variable 4.6 mph - N/A   Clear
4:52 PM 62.1 °F - 36.0 °F 38% 30.02 in 10.0 mi NNW 4.6 mph - N/A   Clear
5:52 PM 57.9 °F - 39.0 °F 49% 30.02 in 10.0 mi Calm Calm - N/A   Clear
6:52 PM 50.0 °F - 39.9 °F 68% 30.02 in 10.0 mi Calm Calm - N/A   Clear
7:52 PM 46.0 °F 43.9 °F 39.9 °F 79% 30.04 in 10.0 mi ENE 4.6 mph - N/A   Clear
8:52 PM 44.1 °F 42.5 °F 41.0 °F 89% 30.04 in 10.0 mi SSW 3.5 mph - N/A   Clear
9:52 PM 42.1 °F - 39.0 °F 89% 30.04 in 10.0 mi Calm Calm - N/A   Clear
10:52 PM 41.0 °F - 39.0 °F 93% 30.04 in 9.0 mi Calm Calm - N/A   Clear
11:52 PM 37.9 °F - 37.0 °F 97% 30.04 in 4.0 mi Calm Calm - N/A   Clear
11:59 PM 39.0 °F - 37.0 °F 93% 30.03 in 1.5 mi Calm Calm - N/A   Clear